DW8004 Weather Reports


time (UTC)temp
C
wind
direction
speed
KPH
gust
KPH
rain 1hr
cm
rain 24hr
cm
rain mn
cm
humidity
%
barometer
mb
20260904071501 13 200 0.0 0.0 0.00 0.00 0.00 97 1010.4
20260904070055 13 200 0.0 0.0 0.00 0.00 0.00 97 1010.4
20260904064539 13 200 0.0 0.0 0.00 0.00 0.00 97 1010.4
20260904063043 13 200 0.0 0.0 0.00 0.00 0.00 96 1010.4
20260904061631 13 200 0.0 0.0 0.00 0.00 0.00 96 1010.4
20260904060135 13 200 0.0 0.0 0.00 0.00 0.00 96 1010.5
20260904054549 13 200 0.0 0.0 0.00 0.00 0.00 96 1010.6
20260904053032 14 200 0.0 0.0 0.00 0.00 0.00 96 1010.8
20260904051502 14 200 0.0 0.0 0.00 0.00 0.00 96 1011.2
20260904050040 14 200 0.0 0.0 0.00 0.00 0.00 96 1011.3
20260904044508 14 200 0.0 0.0 0.00 0.00 0.00 96 1011.3
20260904043112 14 200 0.0 0.0 0.00 0.00 0.00 96 1011.2
20260904041552 15 200 0.0 0.0 0.00 0.00 0.00 96 1011.1
20260904040028 15 200 0.0 0.0 0.00 0.00 0.00 95 1011.3
20260904034559 15 200 0.0 0.0 0.00 0.00 0.00 95 1011.1
20260904033047 15 200 0.0 0.0 0.00 0.00 0.00 95 1011.3
20260904031539 15 200 0.0 0.0 0.00 0.00 0.00 96 1011.4
20260904030006 16 200 0.0 0.0 0.00 0.00 0.00 96 1011.5
20260904024608 16 200 0.0 0.0 0.00 0.00 0.00 95 1011.7
20260904023052 16 200 0.0 0.0 0.00 0.00 0.00 95 1011.5
20260904021526 16 200 0.0 0.0 0.00 0.00 0.00 96 1011.7
20260904020030 16 200 0.0 0.0 0.00 0.00 0.00 95 1011.8
20260904014521 17 200 0.0 0.0 0.00 0.00 0.00 95 1011.7
20260904013007 17 200 0.0 0.0 0.00 0.00 0.00 95 1011.8
20260904011606 17 200 0.0 0.0 0.00 0.00 0.00 95 1011.7
20260904010057 17 200 0.0 0.0 0.00 0.00 0.00 95 1011.8
20260904004603 17 200 0.0 0.0 0.00 0.00 0.00 95 1011.6
20260904003029 17 200 0.0 0.0 0.00 0.00 0.00 95 1011.4
20260904001507 18 200 0.0 0.0 0.00 0.00 0.00 94 1011.2
20260903234553 18 200 0.0 0.0 0.00 0.00 0.00 94 1010.8
20260903233057 18 200 0.0 0.0 0.00 0.00 0.00 94 1010.5
20260903231609 18 200 0.0 0.0 0.00 0.00 0.00 93 1010.7
20260903230045 19 200 0.0 0.0 0.00 0.00 0.00 92 1010.7
20260903224540 20 200 0.0 0.0 0.00 0.00 0.00 92 1010.8
20260903223009 20 200 0.0 0.0 0.00 0.00 0.00 90 1010.8
20260903221539 21 200 0.0 0.0 0.00 0.00 0.00 87 1010.7
20260903220031 22 200 0.0 0.0 0.00 0.00 0.00 84 1010.7
20260903214534 22 236 0.0 0.0 0.00 0.00 0.00 82 1010.7
20260903213006 22 215 0.0 0.0 0.00 0.00 0.00 82 1011.1
20260903211535 22 209 0.0 0.0 0.00 0.00 0.00 84 1010.8
20260903210100 23 236 0.0 0.0 0.00 0.00 0.00 83 1010.8
20260903204559 23 348 0.0 0.0 0.00 0.00 0.00 82 1010.8
20260903203053 22 170 0.0 0.0 0.00 0.00 0.00 84 1011.0
20260903201526 22 232 0.0 0.0 0.00 0.00 0.00 83 1011.0
20260903200045 22 253 0.0 0.0 0.00 0.00 0.00 82 1011.0
20260903194551 22 217 0.0 0.0 0.00 0.00 0.00 84 1011.2
20260903193055 22 146 0.0 0.0 0.00 0.00 0.00 84 1011.4
20260903191603 21 290 0.0 0.0 0.00 0.00 0.00 88 1011.7
20260903190101 21 266 0.0 0.0 0.00 0.00 0.00 90 1011.7
20260903184550 20 231 0.0 0.0 0.00 0.00 0.00 91 1012.0
20260903183038 20 168 0.0 0.0 0.00 0.00 0.00 91 1012.1
20260903181502 20 224 0.0 0.0 0.00 0.00 0.00 90 1012.1
20260903180023 20 206 0.0 0.0 0.00 0.00 0.00 90 1012.0
20260903174528 20 206 0.0 0.0 0.00 0.00 0.00 91 1012.2
20260903173035 20 206 0.0 0.0 0.00 0.00 0.00 91 1012.1
20260903171530 20 240 0.0 0.0 0.00 0.00 0.00 91 1012.4
20260903170037 20 201 0.0 0.0 0.00 0.00 0.00 90 1012.5
20260903164537 20 272 0.0 0.0 0.00 0.00 0.00 90 1012.6
20260903163044 21 254 0.0 0.0 0.00 0.00 0.00 89 1012.6
20260903161515 21 206 0.0 0.0 0.00 0.00 0.00 88 1012.5
20260903160008 20 242 0.0 0.0 0.00 0.00 0.00 91 1012.6
20260903154509 20 208 0.0 0.0 0.00 0.00 0.00 91 1012.8
20260903153132 20 240 0.0 0.0 0.00 0.00 0.00 91 1012.9
20260903151528 20 188 0.0 0.0 0.00 0.00 0.00 93 1012.7
20260903150008 18 123 0.0 0.0 0.00 0.00 0.00 94 1012.8
20260903144538 18 165 0.0 0.0 0.00 0.00 0.00 95 1013.1
20260903143015 17 165 0.0 0.0 0.00 0.00 0.00 96 1013.2
20260903141524 17 165 0.0 0.0 0.00 0.00 0.00 97 1013.3
20260903140001 17 165 0.0 0.0 0.00 0.00 0.00 97 1013.5
20260903134640 16 167 0.0 0.0 0.00 0.00 0.00 98 1013.3
20260903133013 16 171 0.0 0.0 0.00 0.00 0.00 98 1013.3
20260903131511 16 171 0.0 0.0 0.00 0.00 0.00 98 1013.5
20260903130009 15 82 0.0 0.0 0.00 0.00 0.00 98 1013.6
20260903124610 15 107 0.0 0.0 0.00 0.00 0.00 98 1013.6
20260903123013 15 109 0.0 0.0 0.00 0.00 0.00 98 1013.7
20260903121514 15 109 0.0 0.0 0.00 0.00 0.00 98 1014.0
20260903120038 15 109 0.0 0.0 0.00 0.00 0.00 98 1013.9
20260903114534 15 220 0.0 0.0 0.00 0.00 0.00 98 1014.0
20260903113039 15 220 0.0 0.0 0.00 0.00 0.00 98 1014.0
20260903111552 15 220 0.0 0.0 0.00 0.00 0.00 98 1014.1
20260903110045 15 227 0.0 0.0 0.00 0.00 0.00 98 1014.1
20260903104553 15 241 0.0 0.0 0.00 0.00 0.00 98 1014.0
20260903103049 15 257 0.0 0.0 0.00 0.00 0.00 98 1014.1
20260903101520 15 63 0.0 0.0 0.00 0.00 0.00 97 1014.0
20260903100131 15 85 0.0 0.0 0.00 0.00 0.00 97 1013.9
20260903094602 15 85 0.0 0.0 0.00 0.00 0.00 97 1013.7
20260903093032 15 85 0.0 0.0 0.00 0.00 0.00 97 1013.8
20260903091513 15 85 0.0 0.0 0.00 0.00 0.00 97 1014.0
20260903090029 15 85 0.0 0.0 0.00 0.00 0.00 97 1013.8
20260903084542 15 85 0.0 0.0 0.00 0.00 0.00 97 1014.0
20260903083053 15 100 0.0 0.0 0.00 0.00 0.00 97 1014.2
20260903081549 15 100 0.0 0.0 0.00 0.00 0.00 96 1014.2
20260903080052 15 42 0.0 0.0 0.00 0.00 0.00 96 1014.2
20260903074612 15 41 0.0 0.0 0.00 0.00 0.00 96 1014.4
20260903073049 14 41 0.0 0.0 0.00 0.00 0.00 96 1014.3